Location: Julian California
(33.0790°N, 116.6010°W)
Time: 13:18:17
(UTC-07:00)

Cosmos 921 Rocket - Pass Details

Date: 14 June 2018
Orbit: 572 x 632 km, 75.8° (Epoch: 19 June)

Event Time Altitude Azimuth Distance (km) Brightness Sun altitude
Rises 23:10:26 0° 350° (N) 2,888 7.6 -29.1°
Reaches altitude 10° 23:12:42 10° 355° (N) 1,987 6.5 -29.3°
Enters shadow 23:15:29 35° 13° (NNE) 1,000 4.4 -29.6°
